Waarnemingen

Advertentie
Mijn weer
Aurillac, Frankrijk (7549): temperatuur & dauwpunt: 22.05.2020 00:00:00 - 28.05.2020 00:00:00 (CEST)Aurillac, Frankrijk (7549): temperatuur 5cm: 22.05.2020 00:00:00 - 28.05.2020 00:00:00 (CEST)Aurillac, Frankrijk (7549): temperatuur -20cm & temperatuur -100cm: 22.05.2020 00:00:00 - 28.05.2020 00:00:00 (CEST)Aurillac, Frankrijk (7549): windsnelheid & windstoten: 22.05.2020 00:00:00 - 28.05.2020 00:00:00 (CEST)Aurillac, Frankrijk (7549): windrichting: 22.05.2020 00:00:00 - 28.05.2020 00:00:00 (CEST)Aurillac, Frankrijk (7549): luchtdruk: 22.05.2020 00:00:00 - 28.05.2020 00:00:00 (CEST)Aurillac, Frankrijk (7549): zicht: 22.05.2020 00:00:00 - 28.05.2020 00:00:00 (CEST)Aurillac, Frankrijk (7549): Zonneschijnduur: 22.05.2020 00:00:00 - 28.05.2020 00:00:00 (CEST)Aurillac, Frankrijk (7549): neerslag: 22.05.2020 00:00:00 - 28.05.2020 00:00:00 (CEST)
Datum & Tijd tt [°C] td [°C] tt 5cm [°C] tt -20cm [°C] tt -100cm [°C] ff [km/u] ff [kn] fx [km/u] fx [kn] dd ppp [hPa] vv [km] sd [min] rr [mm]
28.05.2020 00:00:00 14,6 6,4 7,5 18,1 13,2 6 4 9 5 OZO 1028,0 55 0 0,0
27.05.2020 23:00:00 15,6 6,8 9,5 18,0 13,2 6 4 13 7 O 1027,5 53 0 0,0
27.05.2020 22:00:00 16,7 7,3 11,5 17,9 13,2 8 4 15 8 OZO 1026,7 54 0 0,0
27.05.2020 21:00:00 20,0 8,0 17,0 17,8 13,2 8 5 21 11 O 1025,5 46 60 -
27.05.2020 20:00:00 24,1 8,5 20,7 17,5 13,2 5 3 13 7 NNW 1024,1 54 60 0,0
27.05.2020 19:00:00 25,0 6,7 25,7 17,2 13,2 6 3 14 8 N 1023,9 19 60 0,0
27.05.2020 18:00:00 25,1 5,3 30,9 16,8 13,1 6 3 16 9 ZO 1024,2 19 60 0,0
27.05.2020 17:00:00 25,0 7,2 34,6 16,5 13,2 7 4 20 11 O 1024,5 13 60 0,0
27.05.2020 16:00:00 24,8 6,5 34,7 16,1 13,2 11 6 20 11 NO 1024,9 60 60 0,0
27.05.2020 15:00:00 24,5 4,8 34,3 15,9 13,2 7 4 17 9 ZZO 1025,2 52 60 0,0
27.05.2020 14:00:00 23,8 7,4 31,0 15,7 13,2 5 3 27 15 ZZO 1025,6 37 60 0,0
27.05.2020 13:00:00 22,4 9,2 27,9 15,7 13,2 14 7 27 14 O 1026,1 18 60 0,0
27.05.2020 12:00:00 21,7 8,2 23,5 15,7 13,1 16 9 33 18 O 1026,5 23 60 0,0
27.05.2020 11:00:00 20,3 6,2 21,3 15,8 13,2 18 10 34 18 OZO 1026,7 28 60 0,0
27.05.2020 10:00:00 19,2 6,6 19,1 16,0 13,2 17 9 30 16 OZO 1026,8 37 60 0,0
27.05.2020 09:00:00 17,6 7,0 10,7 16,2 13,2 8 4 16 9 O 1026,9 19 60 0,0
27.05.2020 08:00:00 13,1 6,7 6,7 16,4 13,1 3 1 12 6 W 1027,9 20 60 0,0
27.05.2020 07:00:00 10,6 4,1 3,5 16,6 13,2 10 5 19 11 ONO 1028,5 49 25 0,0
27.05.2020 06:00:00 7,8 3,6 1,4 16,8 13,1 11 6 16 9 O 1029,1 49 0 0,0
27.05.2020 05:00:00 6,7 2,6 1,5 17,1 13,2 5 3 7 4 ONO 1029,4 55 0 0,0
27.05.2020 04:00:00 6,8 3,6 2,3 17,2 13,2 2 1 14 8 NO 1029,5 55 0 0,0
27.05.2020 03:00:00 8,0 3,5 2,2 17,4 13,2 9 5 11 6 ONO 1029,3 50 0 0,0
27.05.2020 02:00:00 7,7 3,9 3,5 17,7 13,2 7 4 11 6 ONO 1029,6 43 0 0,0
27.05.2020 01:00:00 9,2 4,4 3,7 17,7 13,2 6 3 7 4 OZO 1029,4 46 0 0,0
27.05.2020 00:00:00 10,5 5,3 5,5 17,7 13,1 5 3 16 8 OZO 1029,1 36 0 0,0
26.05.2020 23:00:00 12,5 4,9 6,5 17,7 13,2 2 1 8 5 W 1029,0 56 0 0,0
26.05.2020 22:00:00 15,9 6,0 9,0 17,5 13,1 5 3 18 10 O 1027,5 54 0 0,0
26.05.2020 21:00:00 18,9 6,4 16,4 17,4 13,2 13 7 23 13 NO 1026,3 34 55 0,0
26.05.2020 20:00:00 21,7 6,8 20,1 17,1 13,1 13 7 29 15 ONO 1025,3 42 60 0,0
26.05.2020 19:00:00 23,3 7,8 23,9 16,8 13,2 16 8 29 16 O 1024,8 39 60 0,0
26.05.2020 18:00:00 24,5 8,0 29,6 16,4 13,2 10 5 21 11 ZZO 1024,4 47 60 0,0
26.05.2020 17:00:00 25,8 11,2 34,9 16,0 13,1 3 1 17 9 Z 1024,1 46 60 0,0
26.05.2020 16:00:00 24,6 7,7 34,5 15,7 13,2 4 2 15 8 O 1024,9 46 60 0,0
26.05.2020 15:00:00 23,8 9,4 34,2 15,4 13,2 5 3 18 10 N 1025,5 49 60 0,0
26.05.2020 14:00:00 22,8 7,3 33,4 15,2 13,1 4 2 19 10 WNW 1026,0 19 60 0,0
26.05.2020 13:00:00 21,8 8,7 29,8 15,1 13,2 7 4 18 10 NNW 1026,6 42 60 0,0
26.05.2020 12:00:00 20,6 8,9 23,3 15,1 13,1 7 4 18 10 NW 1026,7 20 60 0,0
26.05.2020 11:00:00 19,3 8,0 19,8 15,2 13,1 7 4 14 7 NNW 1027,1 31 60 0,0
26.05.2020 10:00:00 18,3 8,3 15,3 15,4 13,2 4 2 10 5 N 1027,2 45 60 0,0
26.05.2020 09:00:00 15,3 9,0 11,4 15,5 13,1 4 2 7 4 WNW 1027,9 46 60 0,0
26.05.2020 08:00:00 12,4 7,3 5,4 15,7 13,2 3 1 6 4 NO 1028,3 50 60 0,0
26.05.2020 07:00:00 6,8 5,6 1,8 15,9 13,1 6 3 10 5 O 1029,8 36 25 0,0
26.05.2020 06:00:00 6,1 5,2 1,7 16,1 13,1 4 2 6 3 O 1029,7 52 0 0,0
26.05.2020 05:00:00 6,2 5,0 2,1 16,3 13,1 3 2 8 4 O 1029,6 49 0 0,0
26.05.2020 04:00:00 7,5 6,3 3,3 16,4 13,1 3 2 8 4 O 1029,5 48 0 0,0
26.05.2020 03:00:00 8,6 6,2 3,8 16,5 13,2 4 2 9 5 ZO 1029,5 57 0 0,0
26.05.2020 02:00:00 9,4 6,1 5,5 16,6 13,1 4 2 18 10 NNO 1029,4 44 0 0,0
26.05.2020 01:00:00 12,3 7,2 8,2 16,7 13,2 8 5 17 9 O 1028,7 59 0 0,0
26.05.2020 00:00:00 13,9 7,2 9,4 16,7 13,1 9 5 20 11 O 1028,5 60 0 0,0
25.05.2020 23:00:00 14,8 7,6 10,1 16,7 13,1 8 4 16 8 O 1028,2 59 0 0,0
25.05.2020 22:00:00 15,9 7,9 12,1 16,6 13,1 9 5 19 10 O 1027,4 45 0 0,0
25.05.2020 21:00:00 18,3 8,5 15,6 16,4 13,2 10 6 23 12 O 1026,2 49 48 0,0
25.05.2020 20:00:00 20,7 8,0 19,3 16,2 13,1 15 8 26 14 O 1025,1 43 60 0,0
25.05.2020 19:00:00 21,9 8,7 22,2 15,9 13,1 14 8 30 16 O 1024,8 22 60 0,0
25.05.2020 18:00:00 22,1 8,2 26,8 15,6 13,2 18 10 31 17 O 1025,0 17 60 0,0
25.05.2020 17:00:00 22,5 9,6 29,3 15,3 13,1 17 9 33 18 O 1024,9 17 60 0,0
25.05.2020 16:00:00 22,1 8,6 29,2 15,0 13,1 20 11 31 17 ONO 1025,6 18 60 0,0
25.05.2020 15:00:00 21,8 8,7 29,1 14,8 13,1 19 10 36 19 ONO 1025,9 19 60 0,0
25.05.2020 14:00:00 20,8 7,8 26,6 14,6 13,2 20 11 37 20 O 1026,6 18 60 0,0
25.05.2020 13:00:00 20,2 7,2 23,9 14,6 13,1 20 11 42 23 OZO 1026,6 23 60 0,0
25.05.2020 12:00:00 19,9 4,4 22,0 14,6 13,1 19 10 34 19 OZO 1026,5 31 60 0,0
25.05.2020 11:00:00 18,9 3,9 19,5 14,7 13,1 18 10 35 19 O 1026,8 47 60 0,0
25.05.2020 10:00:00 17,6 0,7 15,5 14,9 13,1 14 8 26 14 O 1027,3 60 60 0,0
25.05.2020 09:00:00 15,7 5,9 10,4 15,1 13,1 4 2 10 6 ONO 1027,7 57 60 0,0
25.05.2020 08:00:00 9,8 6,5 3,3 15,2 13,1 4 2 9 5 ONO 1029,3 40 60 0,0
25.05.2020 07:00:00 4,7 4,4 1,0 15,5 13,1 5 3 13 7 OZO 1030,7 39 24 0,0
25.05.2020 06:00:00 4,3 3,7 0,5 15,7 13,1 10 5 14 8 O 1030,9 29 0 0,0
25.05.2020 05:00:00 3,6 2,7 0,5 15,9 13,1 5 3 8 4 O 1031,2 36 0 0,0
25.05.2020 04:00:00 3,8 2,6 0,9 16,0 13,1 3 1 6 3 ZZO 1030,9 37 0 0,0
25.05.2020 03:00:00 4,9 4,2 1,5 16,2 13,1 3 2 8 4 W 1030,8 40 0 0,0
25.05.2020 02:00:00 5,7 4,5 2,6 16,3 13,1 3 2 8 4 Z 1030,9 38 0 0,0
25.05.2020 01:00:00 6,6 5,4 3,4 16,4 13,1 8 4 10 6 O 1031,0 38 0 0,0
25.05.2020 00:00:00 8,2 5,3 4,2 16,4 13,1 2 1 12 7 ZZO 1031,2 44 0 0,0
24.05.2020 23:00:00 11,1 5,2 5,5 16,3 13,1 4 2 11 6 NO 1030,6 47 0 0,0
24.05.2020 22:00:00 12,9 5,3 8,7 16,2 13,1 9 5 18 10 NO 1029,9 18 0 0,0
24.05.2020 21:00:00 15,4 6,1 13,5 16,1 13,1 11 6 29 16 ONO 1028,8 43 47 0,0
24.05.2020 20:00:00 17,6 6,8 17,0 15,8 13,1 16 8 27 15 N 1028,0 20 60 0,0
24.05.2020 19:00:00 19,0 6,5 19,5 15,4 13,1 14 8 32 17 NNO 1027,6 31 60 0,0
24.05.2020 18:00:00 19,2 6,3 25,4 15,1 13,1 18 10 31 17 NNW 1027,8 20 60 0,0
24.05.2020 17:00:00 19,7 7,7 29,1 14,7 13,0 16 9 41 22 NNW 1027,9 20 60 0,0
24.05.2020 16:00:00 19,3 6,4 30,8 14,4 13,0 15 8 29 15 NNO 1028,5 54 60 0,0
24.05.2020 15:00:00 18,9 6,0 25,7 14,2 13,1 13 7 28 15 N 1028,9 25 52 0,0
24.05.2020 14:00:00 18,5 7,3 24,9 14,0 13,1 8 4 21 11 NNO 1029,2 52 51 0,0
24.05.2020 13:00:00 17,4 7,2 22,9 13,9 13,1 6 3 22 12 NNO 1029,9 47 45 0,0
24.05.2020 12:00:00 16,6 8,3 21,9 13,9 13,0 5 3 18 10 ZZO 1030,5 20 60 0,0
24.05.2020 11:00:00 14,5 8,2 14,4 14,1 13,0 6 3 14 7 NW 1031,4 29 60 0,0
24.05.2020 10:00:00 11,5 8,2 10,0 14,2 13,0 4 2 10 5 W 1032,4 20 60 0,0
24.05.2020 09:00:00 8,3 6,6 6,4 14,4 13,0 2 1 6 4 O 1033,1 40 60 0,0
24.05.2020 08:00:00 5,0 4,7 1,2 14,6 13,0 2 1 5 3 ZO 1033,8 7 60 0,0
24.05.2020 07:00:00 1,8 1,8 -0,5 14,7 13,0 0 0 6 3 N 1034,7 2,5 23 0,0
24.05.2020 06:00:00 1,4 1,4 -0,6 14,9 13,0 0 0 6 3 N 1034,6 1,3 0 0,0
24.05.2020 05:00:00 1,6 1,5 0,2 15,1 13,0 3 2 9 5 OZO 1034,9 0,3 0 0,0
24.05.2020 04:00:00 2,3 2,2 0,0 15,3 13,0 5 3 8 4 O 1035,1 0,5 0 0,0
24.05.2020 03:00:00 3,1 3,0 0,2 15,4 13,0 2 1 8 4 ZO 1035,3 0,3 0 0,0
24.05.2020 02:00:00 3,3 3,0 0,8 15,5 13,0 4 2 8 5 OZO 1035,4 1,0 0 0,0
24.05.2020 01:00:00 3,8 2,8 1,7 15,6 13,0 4 2 11 6 O 1035,4 30 0 0,0
24.05.2020 00:00:00 6,7 5,6 3,1 15,7 13,0 2 1 16 9 N 1034,1 42 0 0,0
23.05.2020 23:00:00 7,1 5,6 5,6 15,7 13,0 7 4 18 10 NNW 1033,7 43 0 0,0
23.05.2020 22:00:00 9,1 6,9 7,0 15,7 13,0 8 5 17 9 NW 1032,8 46 0 0,0
23.05.2020 21:00:00 10,1 7,0 8,5 15,8 13,0 9 5 30 16 NW 1032,3 50 43 0,0
23.05.2020 20:00:00 11,9 7,6 10,9 15,8 13,0 16 8 39 21 NNW 1031,2 51 17 0,0
23.05.2020 19:00:00 11,5 8,9 11,7 15,8 13,0 18 10 35 19 NNW 1031,1 38 7 0,0
23.05.2020 18:00:00 11,1 9,8 10,7 15,8 13,0 11 6 26 14 NW 1031,2 42 1 0,2
23.05.2020 17:00:00 10,0 9,5 10,1 15,9 13,0 13 7 27 15 WNW 1031,7 27 0 1,6
23.05.2020 16:00:00 11,0 9,4 11,0 15,8 13,0 11 6 24 13 WNW 1030,8 7 0 1,0
23.05.2020 15:00:00 11,8 9,0 12,7 15,9 13,0 9 5 33 18 WNW 1030,7 42 0 0,0
23.05.2020 14:00:00 14,3 10,3 13,5 15,9 13,0 8 5 16 9 WNW 1029,2 49 0 0,0
23.05.2020 13:00:00 13,0 9,3 10,8 15,9 13,0 14 7 39 21 N 1029,2 45 0 0,0
23.05.2020 12:00:00 10,5 8,1 11,0 15,9 12,9 14 8 45 24 NW 1029,8 9 0 0,0
23.05.2020 11:00:00 12,8 11,5 12,8 16,0 12,9 22 12 43 23 NW 1028,0 16 0 0,2
23.05.2020 10:00:00 14,6 14,0 14,7 16,0 12,9 13 7 30 16 WNW 1026,5 8 0 0,6
23.05.2020 09:00:00 15,3 14,7 15,1 16,2 13,0 8 4 21 11 WNW 1025,2 13 0 0,0
23.05.2020 08:00:00 15,0 14,5 14,1 16,2 12,9 9 5 18 10 WNW 1025,3 11 0 0,0
23.05.2020 07:00:00 14,1 13,6 11,7 16,3 12,9 4 2 8 5 NW 1024,8 14 0 0,0
23.05.2020 06:00:00 13,8 13,3 12,3 16,4 12,9 4 2 11 6 ZW 1024,4 19 0 0,0
23.05.2020 05:00:00 13,8 13,3 9,8 16,5 12,9 9 5 14 8 O 1024,1 15 0 0,0
23.05.2020 04:00:00 12,8 12,3 9,4 16,5 12,9 6 4 8 5 OZO 1024,7 10 0 0,0
23.05.2020 03:00:00 13,3 12,5 9,7 16,6 12,9 5 3 7 4 OZO 1024,7 17 0 0,0
23.05.2020 02:00:00 13,7 13,1 10,0 16,7 12,9 4 2 8 4 OZO 1024,7 25 0 0,0
23.05.2020 01:00:00 15,0 13,2 10,6 16,6 12,9 3 2 9 5 O 1024,6 28 0 0,0
23.05.2020 00:00:00 16,5 13,8 11,4 16,6 12,9 5 3 8 4 O 1024,3 31 0 0,0
22.05.2020 23:00:00 17,1 13,2 12,5 16,5 12,9 4 2 8 4 ONO 1024,2 36 0 0,0
22.05.2020 22:00:00 20,2 13,2 14,0 16,4 12,9 4 2 9 5 ZW 1022,8 40 0 0,0
22.05.2020 21:00:00 23,0 13,5 20,5 16,2 12,9 5 3 16 9 ZZW 1021,7 38 41 0,0
22.05.2020 20:00:00 25,3 13,8 24,4 16,0 12,9 8 4 16 9 ZW 1020,7 37 51 0,0
22.05.2020 19:00:00 25,9 14,4 28,0 15,8 12,9 7 4 18 10 Z 1020,4 30 58 0,0
22.05.2020 18:00:00 26,2 13,3 28,8 15,6 12,9 9 5 22 12 WZW 1020,7 24 56 0,0
22.05.2020 17:00:00 26,6 14,0 27,6 15,4 12,9 13 7 24 13 WZW 1020,9 30 40 0,0
22.05.2020 16:00:00 26,7 14,5 28,5 15,3 12,9 8 4 21 11 ZW 1021,2 45 56 0,0
22.05.2020 15:00:00 26,2 16,4 29,2 15,2 12,9 7 4 22 12 W 1021,4 52 53 0,0
22.05.2020 14:00:00 25,9 14,7 29,2 15,1 12,9 9 5 26 14 WZW 1021,5 20 58 0,0
22.05.2020 13:00:00 25,2 16,1 29,4 15,0 12,9 9 5 19 11 WZW 1021,7 25 53 0,0
22.05.2020 12:00:00 25,1 14,2 27,9 15,0 12,9 4 2 14 8 Z 1021,6 19 60 0,0
22.05.2020 11:00:00 24,3 14,7 22,9 15,1 12,9 5 3 10 6 WZW 1021,6 38 60 0,0
22.05.2020 10:00:00 21,9 15,0 16,7 15,1 12,9 4 2 10 5 O 1022,0 35 60 0,0
22.05.2020 09:00:00 16,3 13,2 13,8 15,2 12,9 4 2 10 6 O 1023,0 30 33 0,0
22.05.2020 08:00:00 13,6 12,0 9,0 15,3 12,9 6 3 8 5 OZO 1023,4 27 42 0,0
22.05.2020 07:00:00 10,9 10,0 8,7 15,4 12,9 5 3 13 7 OZO 1023,4 20 22 0,0
22.05.2020 06:00:00 12,2 10,4 9,4 15,5 12,9 13 7 19 11 O 1022,6 28 0 0,0
22.05.2020 05:00:00 11,7 10,3 8,4 15,5 12,9 11 6 15 8 O 1022,7 29 0 0,0
22.05.2020 04:00:00 11,0 10,2 8,3 15,5 12,9 8 5 14 8 O 1022,8 20 0 0,0
22.05.2020 03:00:00 11,9 10,8 8,7 15,6 12,9 4 2 16 8 OZO 1022,6 27 0 0,0
22.05.2020 02:00:00 12,2 11,4 8,8 15,6 12,9 8 5 13 7 O 1022,5 26 0 0,0
22.05.2020 01:00:00 13,2 11,8 9,6 15,6 12,9 6 3 9 5 OZO 1022,4 25 0 0,0
22.05.2020 00:00:00 15,6 12,5 11,0 15,5 12,8 6 3 12 7 O 1021,9 31 0 0,0

tt = temperatuur
td = dauwpunt
tt 5cm = temperatuur 5cm
tt -20cm = temperatuur -20cm
tt -100cm = temperatuur -100cm
ff = windsnelheid
fx = windstoten
dd = windrichting
ppp = luchtdruk
vv = zicht
sd = Zonneschijnduur
rr = neerslag

Weerstations in de omgeving